Grand Junction, CO

9:45 AM MDT on October 19, 2019 (GMT -0600)
Walker

Weather History for KGJT - March, 2019

Change the Weather History Date:

Thursday, March 21, 2019

  Actual Average Record
Temperature  
Mean Temperature 46 °F 45 °F  
Max Temperature 57 °F 58 °F 79 °F (2004)
Min Temperature 35 °F 32 °F 9 °F (1955)
Degree Days  
Heating Degree Days 19 20  
Month to date heating degree days 472 467  
Since 1 July heating degree days 4927 4846  
Cooling Degree Days 0 0  
Month to date cooling degree days 0 0  
Year to date cooling degree days 0 0  
Moisture  
Dew Point 29 °F    
Average Humidity 59    
Maximum Humidity 86    
Minimum Humidity 32    
Precipitation  
Precipitation 0.08 in 0.04 in 0.38 in (1923)
Month to date precipitation 1.91 0.58  
Year to date precipitation 3.35 1.70  
Snow  
Snow 0.00 in 0.10 in 4.80 in (1923)
Month to date snowfall 0.0 1.8  
Since 1 July snowfall 17.4 17.3  
Snow Depth 0.00 in    
Sea Level Pressure  
Sea Level Pressure 30.01 in    
Wind  
Wind Speed 10 mph (ESE)    
Max Wind Speed 28 mph    
Max Gust Speed 37 mph    
Visibility 10 miles    
Events Rain    
T = Trace of Precipitation, MM = Missing Value Source: NWS Daily Summary

Daily Weather History Graph

Daily Weather History Graph

Search for Another Location

Airport or City:

Astronomy

Mar. 21, 2019 Rise Set
Actual Time 7:16 AM MDT 7:26 PM MDT
Civil Twilight 6:49 AM MDT 7:53 PM MDT
Nautical Twilight 6:18 AM MDT 8:24 PM MDT
Astronomical Twilight 5:46 AM MDT 8:56 PM MDT
Moon 8:28 PM MDT (3/21) 7:58 AM MDT (3/21)
Length of Visible Light 13h 04m
Length of Day
12h 10m
Full, 99% of the Moon is Illuminated
Mar 21
Full
Mar 27
Last Quarter
Apr 5
New
Apr 12
First Quarter
Apr 19
Full

Hourly Weather History & Observations

Time (MDT) Temp. Windchill Dew Point Humidity Pressure Visibility Wind Dir Wind Speed Gust Speed Precip Events Conditions
12:53 AM 39.0 °F 31.8 °F 21.9 °F 50% 30.08 in 10.0 mi SE 11.5 mph - N/A   Clear
1:53 AM 39.9 °F 35.1 °F 21.9 °F 49% 30.07 in 10.0 mi SSE 6.9 mph - N/A   Partly Cloudy
2:53 AM 41.0 °F 33.9 °F 21.9 °F 47% 30.06 in 10.0 mi SE 12.7 mph - N/A   Partly Cloudy
3:53 AM 39.0 °F 32.3 °F 21.9 °F 50% 30.03 in 10.0 mi ESE 10.4 mph - N/A   Clear
4:53 AM 39.9 °F 32.5 °F 23.0 °F 51% 30.01 in 10.0 mi SE 12.7 mph - N/A   Clear
5:53 AM 43.0 °F 35.7 °F 19.9 °F 40% 29.99 in 10.0 mi East 15.0 mph - N/A   Clear
6:53 AM 43.0 °F 36.8 °F 19.0 °F 38% 30.00 in 10.0 mi East 11.5 mph - N/A   Mostly Cloudy
7:53 AM 41.0 °F 33.9 °F 19.9 °F 43% 30.01 in 10.0 mi SSE 12.7 mph - N/A   Mostly Cloudy
8:53 AM 42.1 °F 36.1 °F 23.0 °F 47% 30.02 in 10.0 mi SSE 10.4 mph - N/A   Clear
9:53 AM 48.9 °F - 21.0 °F 33% 30.01 in 10.0 mi East 12.7 mph - N/A   Mostly Cloudy
10:53 AM 46.9 °F - 21.9 °F 37% 30.00 in 10.0 mi ESE 10.4 mph - N/A   Overcast
11:53 AM 50.0 °F - 21.9 °F 33% 29.99 in 10.0 mi South 4.6 mph - N/A   Mostly Cloudy
12:53 PM 50.0 °F - 27.0 °F 41% 29.98 in 10.0 mi NW 11.5 mph - N/A   Mostly Cloudy
1:53 PM 54.0 °F - 28.0 °F 37% 29.90 in 10.0 mi Variable 4.6 mph - N/A   Partly Cloudy
2:53 PM 50.0 °F - 33.1 °F 52% 29.94 in 10.0 mi WSW 21.9 mph 31.1 mph N/A   Overcast
3:53 PM 42.1 °F 33.9 °F 39.0 °F 89% 30.03 in 10.0 mi North 17.3 mph - 0.00 in Rain Light Rain
4:22 PM 41.0 °F 33.9 °F 37.9 °F 89% 30.06 in 3.0 mi NE 12.7 mph - 0.02 in Rain Light Rain
4:33 PM 39.9 °F 32.9 °F 37.0 °F 89% 30.03 in 2.0 mi NNE 11.5 mph - 0.06 in Rain Heavy Rain
4:46 PM 39.9 °F 33.4 °F 37.0 °F 89% 30.02 in 8.0 mi NE 10.4 mph - 0.08 in Rain Light Rain
4:53 PM 41.0 °F 35.2 °F 37.0 °F 86% 30.00 in 10.0 mi ENE 9.2 mph - 0.08 in Rain Light Rain
5:00 PM 41.0 °F 34.7 °F 36.0 °F 82% 30.03 in 10.0 mi ESE 10.4 mph - 0.00 in   Overcast
5:53 PM 43.0 °F - 37.0 °F 80% 29.99 in 10.0 mi Calm Calm - 0.00 in   Mostly Cloudy
6:53 PM 42.1 °F 40.2 °F 37.0 °F 82% 29.99 in 10.0 mi West 3.5 mph - N/A   Clear
7:53 PM 39.9 °F 33.9 °F 34.0 °F 79% 30.01 in 10.0 mi East 9.2 mph - N/A   Clear
8:53 PM 39.9 °F 31.8 °F 34.0 °F 79% 30.01 in 10.0 mi East 15.0 mph - N/A   Clear
9:53 PM 39.0 °F 33.4 °F 34.0 °F 82% 30.01 in 10.0 mi East 8.1 mph - N/A   Mostly Cloudy
10:53 PM 37.9 °F 29.6 °F 34.0 °F 86% 30.02 in 10.0 mi ESE 13.8 mph - N/A   Partly Cloudy
11:53 PM 37.0 °F 28.9 °F 33.1 °F 86% 30.01 in 10.0 mi East 12.7 mph - N/A   Clear